When you browse on this site, cookies collect data to enhance your experience and personalize the content and advertising you see.
Visit our Privacy Policy to learn more. By continuing to use the site, you agree to this use of cookies and data.
  • In Lithuania
  • List of Countries
  • For 7 days
  • Water Temperature
  • Satellite Maps
  • Weather Map
  • Weather Widgets
  • user-avatar
    Login

    Hourly Weather Namibe

    Today, 25 May, Saturday

    Time Temperature Precipitation Wind Pressure Humidity
    00:00 +27°C° 0 mm 2 mps 758 mmHg 51%
    01:00 +27°C° 0 mm 2 mps 758 mmHg 53%
    02:00 +27°C° 0 mm 2 mps 758 mmHg 52%
    03:00 +26°C° 0 mm 2 mps 758 mmHg 52%
    04:00 +26°C° 0 mm 3 mps 758 mmHg 51%
    05:00 +27°C° 0 mm 3 mps 758 mmHg 50%
    06:00 +27°C° 0 mm 3 mps 758 mmHg 48%
    07:00 +27°C° 0 mm 3 mps 758 mmHg 48%
    08:00 +28°C° 0 mm 2 mps 758 mmHg 46%
    09:00 +29°C° 0 mm 2 mps 758 mmHg 43%
    10:00 +30°C° 0 mm 2 mps 758 mmHg 41%
    11:00 +33°C° 0 mm 3 mps 758 mmHg 37%
    12:00 +36°C° 0 mm 3 mps 757 mmHg 32%
    13:00 +39°C° 0 mm 5 mps 756 mmHg 27%
    14:00 +37°C° 0 mm 5 mps 756 mmHg 30%
    15:00 +36°C° 0 mm 5 mps 756 mmHg 33%
    16:00 +34°C° 0 mm 6 mps 756 mmHg 37%
    17:00 +33°C° 0 mm 4 mps 756 mmHg 40%
    18:00 +30°C° 0 mm 3 mps 756 mmHg 44%
    19:00 +29°C° 0 mm 2 mps 757 mmHg 47%
    20:00 +29°C° 0 mm 2 mps 757 mmHg 47%
    21:00 +28°C° 0 mm 1 mps 757 mmHg 47%
    22:00 +28°C° 0 mm 1 mps 758 mmHg 47%
    23:00 +28°C° 0 mm 1 mps 758 mmHg 48%

    Tomorrow, 26 May, Sunday

    Time Temperature Precipitation Wind Pressure Humidity
    00:00 +27°C° 0 mm 1 mps 758 mmHg 49%
    01:00 +27°C° 0 mm 1 mps 758 mmHg 50%
    02:00 +27°C° 0 mm 1 mps 758 mmHg 51%
    03:00 +26°C° 0 mm 1 mps 758 mmHg 52%
    04:00 +26°C° 0 mm 1 mps 757 mmHg 53%
    05:00 +27°C° 0 mm 1 mps 758 mmHg 47%
    06:00 +27°C° 0 mm 2 mps 758 mmHg 41%
    07:00 +27°C° 0 mm 2 mps 758 mmHg 35%
    08:00 +30°C° 0 mm 3 mps 758 mmHg 30%
    09:00 +33°C° 0 mm 3 mps 758 mmHg 24%
    10:00 +36°C° 0 mm 3 mps 758 mmHg 18%
    11:00 +37°C° 0 mm 3 mps 758 mmHg 17%
    12:00 +38°C° 0 mm 3 mps 757 mmHg 16%
    13:00 +39°C° 0 mm 3 mps 757 mmHg 15%
    14:00 +40°C° 0 mm 4 mps 756 mmHg 16%
    15:00 +38°C° 0 mm 4 mps 756 mmHg 18%
    16:00 +37°C° 0 mm 5 mps 755 mmHg 19%
    17:00 +35°C° 0 mm 5 mps 755 mmHg 25%
    18:00 +33°C° 0 mm 5 mps 756 mmHg 30%
    19:00 +30°C° 0 mm 5 mps 756 mmHg 36%
    20:00 +29°C° 0 mm 4 mps 757 mmHg 38%
    21:00 +29°C° 0 mm 3 mps 757 mmHg 40%
    22:00 +28°C° 0 mm 2 mps 757 mmHg 41%
    23:00 +27°C° 0 mm 2 mps 757 mmHg 44%

    Day after tomorrow, 27 May, Monday

    Time Temperature Precipitation Wind Pressure Humidity
    00:00 +27°C° 0 mm 2 mps 757 mmHg 46%
    01:00 +26°C° 0 mm 1 mps 757 mmHg 48%
    02:00 +26°C° 0 mm 1 mps 757 mmHg 47%
    03:00 +26°C° 0 mm 1 mps 757 mmHg 47%
    04:00 +25°C° 0 mm 1 mps 756 mmHg 46%
    05:00 +26°C° 0 mm 1 mps 757 mmHg 43%
    06:00 +26°C° 0 mm 1 mps 757 mmHg 39%
    07:00 +26°C° 0 mm 1 mps 757 mmHg 36%
    08:00 +28°C° 0 mm 1 mps 757 mmHg 31%
    09:00 +30°C° 0 mm 1 mps 758 mmHg 27%
    10:00 +32°C° 0 mm 1 mps 758 mmHg 22%
    11:00 +35°C° 0 mm 2 mps 757 mmHg 21%
    12:00 +36°C° 0 mm 3 mps 756 mmHg 20%
    13:00 +37°C° 0 mm 3 mps 756 mmHg 19%
    14:00 +36°C° 0 mm 4 mps 755 mmHg 20%
    15:00 +36°C° 0 mm 4 mps 755 mmHg 22%
    16:00 +35°C° 0 mm 5 mps 754 mmHg 24%
    17:00 +33°C° 0 mm 4 mps 755 mmHg 29%
    18:00 +30°C° 0 mm 3 mps 755 mmHg 34%
    19:00 +28°C° 0 mm 2 mps 756 mmHg 39%
    20:00 +28°C° 0 mm 2 mps 756 mmHg 40%
    21:00 +28°C° 0 mm 1 mps 757 mmHg 41%
    22:00 +27°C° 0 mm 1 mps 757 mmHg 42%
    23:00 +27°C° 0 mm 1 mps 757 mmHg 42%

    28 May, Tuesday

    Time Temperature Precipitation Wind Pressure Humidity
    00:00 +27°C° 0 mm 1 mps 757 mmHg 42%
    01:00 +24°C° 0 mm 0 mps 757 mmHg 41%
    02:00 +26°C° 0 mm 1 mps 757 mmHg 42%
    03:00 +26°C° 0 mm 1 mps 756 mmHg 42%
    04:00 +25°C° 0 mm 1 mps 756 mmHg 43%
    05:00 +25°C° 0 mm 1 mps 756 mmHg 43%
    06:00 +25°C° 0 mm 1 mps 757 mmHg 42%
    07:00 +25°C° 0 mm 1 mps 757 mmHg 42%
    08:00 +27°C° 0 mm 1 mps 757 mmHg 37%
    09:00 +29°C° 0 mm 1 mps 757 mmHg 32%
    10:00 +31°C° 0 mm 2 mps 757 mmHg 27%
    11:00 +33°C° 0 mm 3 mps 757 mmHg 28%
    12:00 +33°C° 0 mm 4 mps 756 mmHg 29%
    13:00 +33°C° 0 mm 5 mps 756 mmHg 30%
    14:00 +32°C° 0 mm 4 mps 756 mmHg 33%
    15:00 +32°C° 0 mm 4 mps 756 mmHg 35%
    16:00 +30°C° 0 mm 4 mps 755 mmHg 38%
    17:00 +29°C° 0 mm 3 mps 756 mmHg 43%
    18:00 +27°C° 0 mm 2 mps 757 mmHg 49%
    19:00 +26°C° 0 mm 1 mps 757 mmHg 54%
    20:00 +26°C° 0 mm 1 mps 758 mmHg 55%
    21:00 +24°C° 0 mm 0 mps 758 mmHg 55%
    22:00 +24°C° 0 mm 0 mps 758 mmHg 56%
    23:00 +23°C° 0 mm 0 mps 758 mmHg 57%

    29 May, Wednesday

    Time Temperature Precipitation Wind Pressure Humidity
    00:00 +23°C° 0 mm 0 mps 758 mmHg 58%
    01:00 +24°C° 0 mm 1 mps 758 mmHg 60%
    02:00 +24°C° 0 mm 1 mps 758 mmHg 61%
    03:00 +24°C° 0 mm 1 mps 758 mmHg 62%
    04:00 +23°C° 0 mm 1 mps 757 mmHg 64%
    05:00 +23°C° 0 mm 1 mps 758 mmHg 64%
    06:00 +21°C° 0 mm 0 mps 758 mmHg 64%
    07:00 +21°C° 0 mm 0 mps 759 mmHg 65%
    08:00 +23°C° 0 mm 0 mps 759 mmHg 56%
    09:00 +25°C° 0 mm 0 mps 759 mmHg 48%
    10:00 +27°C° 0 mm 0 mps 759 mmHg 40%
    11:00 +30°C° 0 mm 2 mps 759 mmHg 38%
    12:00 +31°C° 0 mm 3 mps 758 mmHg 36%
    13:00 +33°C° 0 mm 4 mps 757 mmHg 33%
    14:00 +32°C° 0 mm 4 mps 757 mmHg 36%
    15:00 +30°C° 0 mm 4 mps 757 mmHg 38%
    16:00 +30°C° 0 mm 4 mps 757 mmHg 40%
    17:00 +28°C° 0 mm 3 mps 757 mmHg 46%
    18:00 +27°C° 0 mm 3 mps 758 mmHg 51%
    19:00 +26°C° 0 mm 3 mps 758 mmHg 57%
    20:00 +25°C° 0 mm 3 mps 759 mmHg 59%
    21:00 +25°C° 0 mm 3 mps 759 mmHg 62%
    22:00 +24°C° 0 mm 3 mps 759 mmHg 64%
    23:00 +24°C° 0 mm 3 mps 759 mmHg 63%

    30 May, Thursday

    Time Temperature Precipitation Wind Pressure Humidity
    00:00 +24°C° 0 mm 2 mps 759 mmHg 63%
    01:00 +23°C° 0 mm 2 mps 759 mmHg 62%
    02:00 +23°C° 0 mm 2 mps 758 mmHg 60%
    03:00 +23°C° 0 mm 2 mps 758 mmHg 59%
    04:00 +23°C° 0 mm 2 mps 758 mmHg 57%
    05:00 +23°C° 0 mm 2 mps 758 mmHg 56%
    06:00 +23°C° 0 mm 2 mps 759 mmHg 54%
    07:00 +23°C° 0 mm 2 mps 759 mmHg 52%
    08:00 +25°C° 0 mm 2 mps 759 mmHg 47%
    09:00 +27°C° 0 mm 3 mps 759 mmHg 41%
    10:00 +29°C° 0 mm 3 mps 759 mmHg 35%
    11:00 +30°C° 0 mm 3 mps 759 mmHg 32%
    12:00 +32°C° 0 mm 4 mps 758 mmHg 28%
    13:00 +33°C° 0 mm 4 mps 757 mmHg 25%
    14:00 +32°C° 0 mm 5 mps 757 mmHg 30%
    15:00 +30°C° 0 mm 6 mps 757 mmHg 36%
    16:00 +29°C° 0 mm 7 mps 756 mmHg 41%
    17:00 +27°C° 0 mm 6 mps 757 mmHg 45%
    18:00 +26°C° 0 mm 5 mps 757 mmHg 48%
    19:00 +25°C° 0 mm 4 mps 758 mmHg 52%
    20:00 +25°C° 0 mm 4 mps 758 mmHg 52%
    21:00 +24°C° 0 mm 3 mps 758 mmHg 52%
    22:00 +24°C° 0 mm 3 mps 758 mmHg 53%
    23:00 +24°C° 0 mm 3 mps 758 mmHg 54%
    Show more